カタログに戻る

THORAD DELTA 1 DEB

LostLEO
NORAD 42611·DEBRIS·🇺🇸 United States

打ち上げ Nov 15, 1974 から Vandenberg Space Force Base

Loading…

次のパス (今後24時間)

TLE

古いSource: Space-Track

元期: Mar 24, 2024, 05:55 UTC

1 42611U 74089GC  24084.24709112  .00000032  00000-0  60830-3 0  9991
2 42611 101.0880 244.9572 0132711 281.6470  76.9721 12.26882165866272

AllMySatでTHORAD DELTA 1 DEBをリアルタイム追跡

Download on the App Store